Hourly Data Report for October 24, 2013

All times are specified in Local Standard Time (LST). Add 1 hour to adjust for Daylight Saving Time where and when it is observed.

CHARLOTTETOWN A
PRINCE EDWARD ISLAND

46°17'21.000" N
63°07'09.000" W
48.50 m
8300301
71706
YYG

Download Data

Hourly Data (October 2013)
Hourly Data Report for October 24, 2013
Temp Definition
°C
Dew Point Temp Definition
°C
Rel Hum Definition
%
Wind Dir Definition
10's deg

Wind Spd Definition
km/h
Visibility Definition
km
Stn Press Definition
kPa
Hmdx Definition


Wind Chill Definition


Weather Definition


TIME
00:00 Legend Double Dagger 4.9 2.9 87 24 7 24.1 99.41     LegendNANA
01:00 Legend Double Dagger 5.1 3.1 87 24 3 24.1 99.37     LegendNANA
02:00 Legend Double Dagger 5.9 3.2 83 24 7 24.1 99.35     Cloudy
03:00 Legend Double Dagger 5.3 2.8 84 31 8 24.1 99.17     LegendNANA
04:00 Legend Double Dagger 5.2 2.9 85 31 7 24.1 99.17     LegendNANA
05:00 Legend Double Dagger 5.6 2.6 81 30 10 24.1 99.15     Cloudy
06:00 Legend Double Dagger 5.8 1.0 71 28 12 24.1 99.20     LegendNANA
07:00 Legend Double Dagger 5.6 -0.2 66 26 9 24.1 99.27     LegendNANA
08:00 Legend Double Dagger 5.7 0.3 68 29 12 24.1 99.29     Cloudy
09:00 Legend Double Dagger 6.1 1.3 71 28 17 24.1 99.32     LegendNANA
10:00 Legend Double Dagger 7.5 0.0 59 28 17 24.1 99.36     LegendNANA
11:00 Legend Double Dagger 8.3 -0.7 53 29 19 24.1 99.39     Mostly Cloudy
12:00 Legend Double Dagger 8.7 -2.0 47 27 26 24.1 99.37     LegendNANA
13:00 Legend Double Dagger 7.6 -0.9 55 25 26 24.1 99.33     LegendNANA
14:00 Legend Double Dagger 7.6 -2.7 48 25 27 24.1 99.33     Mostly Cloudy
15:00 Legend Double Dagger 7.9 -3.3 45 24 22 24.1 99.35     LegendNANA
16:00 Legend Double Dagger 7.9 -3.3 45 25 21 24.1 99.36     LegendNANA
17:00 Legend Double Dagger 7.0 -3.0 49 25 13 24.1 99.39     Mainly Clear
18:00 Legend Double Dagger 6.1 -3.0 52 26 17 24.1 99.47     LegendNANA
19:00 Legend Double Dagger 5.3 -4.8 48 26 30 24.1 99.56     LegendNANA
20:00 Legend Double Dagger 5.2 -4.7 49 25 21 24.1 99.59     Mostly Cloudy
21:00 Legend Double Dagger 5.5 -3.8 51 24 18 24.1 99.61     LegendNANA
22:00 Legend Double Dagger 6.0 -3.9 49 25 25 24.1 99.59     LegendNANA
23:00 Legend Double Dagger 6.2 -3.5 50 24 31 24.1 99.59     Cloudy

Notes on Data Quality.

Legend

  • E = Estimated
  • M = Missing
  • NA = Not Available
  • ‡ = Partner data that is not subject to review by the National Climate Archives
Date modified: